Weather History for Red Oak, IA

Change the Weather History Date:

Thursday, February 2, 2012

  Actual Average Record
Temperature  
Mean Temperature 40 °F -  
Max Temperature 57 °F 32 °F 67 °F (1992)
Min Temperature 24 °F 11 °F -14 °F (1978)
Degree Days  
Heating Degree Days 24    
Moisture  
Dew Point 24 °F    
Average Humidity 57    
Maximum Humidity 80    
Minimum Humidity 25    
Precipitation  
Precipitation 0.00 in - - ()
Sea Level Pressure  
Sea Level Pressure 30.21 in    
Wind  
Wind Speed 1 mph (ESE)    
Max Wind Speed 8 mph    
Max Gust Speed -    
Visibility 10 miles    
Events      
Averages and records for this station are not official NWS values.
T = Trace of Precipitation, MM = Missing Value Source: NWS Daily Summary

Daily Weather History Graph

Daily Weather History Graph

Search for Another Location

Airport:

Trip Planner

Search our weather history database for the weather conditions in past years. The results will help you decide how hot, cold, wet, or windy it might be!

Date:

Astronomy

Feb. 02, 2012 Rise Set
Actual Time 7:31 AM CST 5:38 PM CST
Civil Twilight 7:02 AM CST 6:07 PM CST
Nautical Twilight 6:29 AM CST 6:40 PM CST
Astronomical Twilight 5:56 AM CST 7:13 PM CST
Moon 12:50 PM CST (2/2) 3:15 AM CST (2/2)
Length of Visible Light 11h 05m
Length of Day
10h 07m
Waxing Gibbous, 74% of the Moon is Illuminated
Feb 2
Waxing Gibbous
Feb 7
Full
Feb 14
Last Quarter
Feb 21
New
Feb 29
First Quarter

Hourly Weather History & Observations

Time (CST) Temp. Windchill Dew Point Humidity Pressure Visibility Wind Dir Wind Speed Gust Speed Precip Events Conditions
12:15 AM 26.6 °F - 19.4 °F 74% 30.15 in 10.0 mi Calm Calm - N/A   Clear
12:35 AM 24.8 °F - 19.4 °F 80% 30.15 in 10.0 mi Calm Calm - N/A   Clear
12:55 AM 24.8 °F - 19.4 °F 80% 30.15 in 10.0 mi Calm Calm - N/A   Clear
1:35 AM 28.4 °F - 21.2 °F 74% 30.15 in 10.0 mi Calm Calm - N/A   Clear
1:37 AM 28.4 °F - 21.2 °F 74% 30.15 in 10.0 mi Calm Calm - N/A   Clear
2:21 AM 26.6 °F - 21.2 °F 80% 30.16 in 10.0 mi Calm Calm - N/A   Clear
2:36 AM 26.6 °F - 21.2 °F 80% 30.16 in 10.0 mi Calm Calm - N/A   Clear
2:56 AM 24.8 °F - 19.4 °F 80% 30.17 in 10.0 mi Calm Calm - N/A   Clear
3:15 AM 26.6 °F - 21.2 °F 80% 30.17 in 10.0 mi Calm Calm - N/A   Clear
3:57 AM 24.8 °F - 19.4 °F 80% 30.17 in 10.0 mi Calm Calm - N/A   Clear
4:15 AM 24.8 °F - 19.4 °F 80% 30.18 in 10.0 mi Calm Calm - N/A   Clear
4:35 AM 24.8 °F - 19.4 °F 80% 30.18 in 10.0 mi Calm Calm - N/A   Clear
4:55 AM 24.8 °F - 19.4 °F 80% 30.19 in 10.0 mi Calm Calm - N/A   Clear
5:15 AM 24.8 °F - 19.4 °F 80% 30.20 in 10.0 mi Calm Calm - N/A   Clear
5:35 AM 24.8 °F - 19.4 °F 80% 30.20 in 10.0 mi Calm Calm - N/A   Clear
5:55 AM 24.8 °F - 19.4 °F 80% 30.20 in 10.0 mi Calm Calm - N/A   Clear
6:15 AM 24.8 °F - 19.4 °F 80% 30.21 in 10.0 mi Calm Calm - N/A   Clear
6:35 AM 24.8 °F - 19.4 °F 80% 30.22 in 10.0 mi Calm Calm - N/A   Clear
6:55 AM 24.8 °F - 19.4 °F 80% 30.23 in 10.0 mi Calm Calm - N/A   Clear
7:15 AM 24.8 °F 20.5 °F 17.6 °F 74% 30.23 in 10.0 mi North 3.5 mph - N/A   Clear
7:35 AM 24.8 °F - 19.4 °F 80% 30.24 in 10.0 mi Calm Calm - N/A   Clear
7:55 AM 24.8 °F - 19.4 °F 80% 30.24 in 10.0 mi Calm Calm - N/A   Clear
8:15 AM 24.8 °F - 19.4 °F 80% 30.25 in 10.0 mi Calm Calm - N/A   Clear
8:35 AM 28.4 °F - 21.2 °F 74% 30.25 in 10.0 mi Calm Calm - N/A   Clear
8:55 AM 30.2 °F - 21.2 °F 69% 30.25 in 10.0 mi Calm Calm - N/A   Clear
9:15 AM 30.2 °F - 24.8 °F 80% 30.25 in 10.0 mi Calm Calm - N/A   Clear
9:35 AM 33.8 °F - 24.8 °F 70% 30.25 in 10.0 mi Calm Calm - N/A   Clear
9:55 AM 35.6 °F - 26.6 °F 70% 30.25 in 10.0 mi Calm Calm - N/A   Clear
10:15 AM 37.4 °F - 28.4 °F 70% 30.25 in 10.0 mi Calm Calm - N/A   Clear
10:35 AM 41.0 °F - 30.2 °F 65% 30.25 in 10.0 mi Calm Calm - N/A   Clear
10:55 AM 44.6 °F - 30.2 °F 57% 30.25 in 10.0 mi Calm Calm - N/A   Clear
11:15 AM 48.2 °F - 32.0 °F 54% 30.25 in 10.0 mi SE 4.6 mph - N/A   Clear
11:35 AM 51.8 °F - 26.6 °F 38% 30.24 in 10.0 mi ESE 6.9 mph - N/A   Clear
11:55 AM 51.8 °F - 26.6 °F 38% 30.23 in 10.0 mi ESE 8.1 mph - N/A   Clear
12:15 PM 53.6 °F - 26.6 °F 35% 30.22 in 10.0 mi SE 6.9 mph - N/A   Scattered Clouds
12:35 PM 53.6 °F - 24.8 °F 33% 30.22 in 10.0 mi SE 4.6 mph - N/A   Scattered Clouds
12:55 PM 55.4 °F - 23.0 °F 29% 30.21 in 10.0 mi SE 4.6 mph - N/A   Clear
1:15 PM 55.4 °F - 23.0 °F 29% 30.21 in 10.0 mi SE 4.6 mph - N/A   Clear
1:35 PM 55.4 °F - 23.0 °F 29% 30.20 in 10.0 mi SE 4.6 mph - N/A   Clear
1:55 PM 57.2 °F - 23.0 °F 27% 30.19 in 10.0 mi SE 5.8 mph - N/A   Clear
2:15 PM 57.2 °F - 21.2 °F 25% 30.19 in 10.0 mi SE 4.6 mph - N/A   Clear
2:35 PM 57.2 °F - 21.2 °F 25% 30.19 in 10.0 mi SSE 5.8 mph - N/A   Clear
2:55 PM 57.2 °F - 21.2 °F 25% 30.19 in 10.0 mi SE 6.9 mph - N/A   Clear
3:15 PM 57.2 °F - 21.2 °F 25% 30.18 in 10.0 mi SE 4.6 mph - N/A   Clear
3:35 PM 57.2 °F - 23.0 °F 27% 30.19 in 10.0 mi Calm Calm - N/A   Clear
3:55 PM 57.2 °F - 23.0 °F 27% 30.18 in 10.0 mi SE 3.5 mph - N/A   Clear
4:15 PM 57.2 °F - 23.0 °F 27% 30.18 in 10.0 mi SE 4.6 mph - N/A   Clear
4:35 PM 55.4 °F - 23.0 °F 29% 30.19 in 10.0 mi SE 3.5 mph - N/A   Clear
4:55 PM 55.4 °F - 23.0 °F 29% 30.20 in 10.0 mi Calm Calm - N/A   Clear
5:15 PM 53.6 °F - 24.8 °F 33% 30.20 in 7.0 mi Calm Calm - N/A   Clear
5:35 PM 51.8 °F - 24.8 °F 35% 30.20 in 10.0 mi Calm Calm - N/A   Clear
5:55 PM 50.0 °F - 24.8 °F 37% 30.21 in 10.0 mi Calm Calm - N/A   Scattered Clouds
6:15 PM 46.4 °F - 26.6 °F 46% 30.21 in 10.0 mi Calm Calm - N/A   Scattered Clouds
6:35 PM 44.6 °F - 26.6 °F 49% 30.21 in 10.0 mi Calm Calm - N/A   Scattered Clouds
6:55 PM 42.8 °F - 26.6 °F 53% 30.21 in 10.0 mi Calm Calm - N/A   Scattered Clouds
7:15 PM 44.6 °F - 26.6 °F 49% 30.21 in 10.0 mi Calm Calm - N/A   Scattered Clouds
7:35 PM 44.6 °F - 26.6 °F 49% 30.21 in 10.0 mi Calm Calm - N/A   Scattered Clouds
7:55 PM 44.6 °F - 26.6 °F 49% 30.21 in 10.0 mi Calm Calm - N/A   Scattered Clouds
8:15 PM 41.0 °F - 26.6 °F 57% 30.21 in 10.0 mi Calm Calm - N/A   Scattered Clouds
8:35 PM 42.8 °F 39.3 °F 28.4 °F 57% 30.21 in 10.0 mi East 5.8 mph - N/A   Scattered Clouds
8:55 PM 44.6 °F 40.2 °F 28.4 °F 53% 30.22 in 10.0 mi East 8.1 mph - N/A   Clear
9:15 PM 44.6 °F 42.2 °F 26.6 °F 49% 30.23 in 10.0 mi ESE 4.6 mph - N/A   Clear
9:35 PM 44.6 °F - 26.6 °F 49% 30.23 in 10.0 mi Calm Calm - N/A   Clear
9:55 PM 42.8 °F - 28.4 °F 57% 30.24 in 10.0 mi Calm Calm - N/A   Clear
10:15 PM 42.8 °F 40.1 °F 28.4 °F 57% 30.25 in 10.0 mi North 4.6 mph - N/A   Clear
10:35 PM 42.8 °F 41.1 °F 28.4 °F 57% 30.26 in 10.0 mi North 3.5 mph - N/A   Clear
10:55 PM 42.8 °F 40.1 °F 28.4 °F 57% 30.25 in 10.0 mi NNE 4.6 mph - N/A   Clear
11:15 PM 42.8 °F 41.1 °F 28.4 °F 57% 30.25 in 10.0 mi North 3.5 mph - N/A   Clear
11:35 PM 42.8 °F 39.3 °F 28.4 °F 57% 30.24 in 10.0 mi NNE 5.8 mph - N/A   Scattered Clouds
11:55 PM 42.8 °F 39.3 °F 28.4 °F 57% 30.23 in 10.0 mi NE 5.8 mph - N/A   Scattered Clouds